www.pogodaiklimat.ru

Погода и климат >> Архив погоды >> Таиланд >> Don Muang


ПОГОДА в Don Muang

  • Прогноз погоды в Don Muang
  • Монитор погоды в Don Muang
  • Климат города

АРХИВ ПОГОДЫ в Don Muang

Время (UTC), дата Ветер
(напр.,м/с)
 
Видим.   Явления Облачность Т
(С)
Тd
(С)
f
(%)
Тe
(С)
Тes
(С)
Комфортность P
(гПа)
Po
(гПа)
Тmin
(С)
Tmax
(С)
R
(мм)
R24
(мм)
S
(см)
15 11.12 С 3 10 км дымка 6/0
[Ac trans Cs]
+27.5 +22.6 75 +36 +36 очень
душно
1012.6 1011.2
18 11.12 СВ 4 10 км 4/0
[Ac trans Cs]
+26.1 +23.6 86 +35 +35 очень
душно
1011.8 1010.4
21 11.12 С 4 10 км 4/1 1000 м
[Sc Ac lent Cs]
+25.6 +23.8 90 +35 +35 очень
душно
1011.0 1009.6
00 12.12 СЗ 2 10 км 3/0
[Ac lent Cs]
+25.5 +23.9 91 +35 +35 очень
душно
1013.0 1011.6 +24.9
03 12.12 В 6 10 км 8/1 1000 м
[Sc Ac lent Cs]
+29.8 +23.3 68 +40 +42 очень
душно
1015.0 1013.6
06 12.12 В 11 10 км 9/1 600 м
[Cu hum Ac trans Cs]
+29.3 +22.4 66 +38 +38 очень
душно
1013.3 1011.9
09 12.12 В 10 10 км 8/3 600 м
[Cu Sc Ac trans Cs]
+30.4 +22.8 64 +40 +40 очень
душно
1012.0 1010.6
12 12.12 С 7 10 км 8/3 600 м
[Cu Sc Ac trans Cs]
+28.4 +22.8 72 +38 +38 очень
душно
1013.0 1011.6 +30.5
15 12.12 С 6 10 км 6/1 600 м
[Cu hum Ac trans Cs]
+27.7 +22.4 73 +36 +36 очень
душно
1013.6 1012.2
18 12.12 С 6 10 км 5/1 600 м
[Cu hum Ac trans Cs]
+25.6 +20.6 74 +32 +32 очень
душно
1013.7 1012.3
21 12.12 С 8 10 км 6/1 600 м
[Cu hum Ac lent Cs]
+24.1 +18.9 73 +29 +29 душно 1013.7 1012.3
00 13.12 СВ 5 10 км 6/1 600 м
[Cu hum Ac lent Cs]
+22.4 +18.4 78 +28 +28 душно 1015.8 1014.4 +22.2
03 13.12 СВ 5 10 км 5/1 600 м
[Cu hum Ac trans Cs]
+27.4 +20.1 64 +34 +37 очень
душно
1016.8 1015.4
06 13.12 В 8 10 км 5/1 600 м
[Cu hum Cs]
+30.4 +21.0 57 +38 +40 очень
душно
1014.2 1012.8
09 13.12 В 6 10 км 3/1 600 м
[Sc Ci fib]
+30.7 +21.0 56 +38 +39 очень
душно
1012.5 1011.1
12 13.12 В 3 10 км 3/1 600 м
[Cu hum Ci fib]
+27.8 +20.4 64 +34 +34 очень
душно
1013.7 1012.3 +31.2
15 13.12 СЗ 5 10 км 5/1 600 м
[Cu hum Cs]
+27.1 +20.7 68 +34 +34 очень
душно
1015.4 1014.0
18 13.12 СВ 4 10 км 5/1 600 м
[Cu hum Cs]
+24.6 +19.8 75 +30 +30 очень
душно
1015.3 1013.9
21 13.12 С 7 10 км 3/0
[Cs]
+24.0 +18.5 71 +28 +28 душно 1014.1 1012.7
00 14.12 С 8 10 км 3/0
[Ac lent Ci fib]
+22.9 +17.8 73 +28 +28 душно 1015.4 1014.0 +22.5
03 14.12 З 4 10 км 4/1 600 м
[Cu hum Ci fib]
+27.3 +19.3 62 +33 +38 очень
душно
1016.6 1015.2
06 14.12 СВ 6 10 км 4/1 600 м
[Cu hum Ci fib]
+29.1 +19.6 57 +35 +40 очень
душно
1014.1 1012.7
09 14.12 С 5 10 км 4/1 600 м
[Cu hum Ci fib]
+30.0 +19.6 54 +36 +38 очень
душно
1012.8 1011.4
12 14.12 СЗ 7 10 км 4/1 600 м
[Cu hum Ci fib]
+27.9 +20.1 63 +34 +34 очень
душно
1013.7 1012.3 +30.0
15 14.12 С 7 10 км 4/1 600 м
[Cu hum Ci fib]
+26.6 +21.0 71 +33 +33 очень
душно
1015.3 1013.9
18 14.12 С 9 10 км 4/1 600 м
[Cu hum Ci fib]
+25.2 +18.4 66 +30 +30 душно 1015.5 1014.1
21 14.12 СВ 4 10 км 4/1 600 м
[Cu hum Ci fib]
+24.2 +18.7 71 +29 +29 душно 1014.2 1012.8
00 15.12 СВ 5 10 км 4/1 600 м
[Cu hum Ci fib]
+23.4 +18.5 74 +30 +30 очень
душно
1014.7 1013.3 +23.4
03 15.12 В 4 10 км 4/0
[Ac trans Cs]
+27.6 +19.4 61 +33 +38 очень
душно
1016.2 1014.8
06 15.12 СЗ 6 10 км 6/1 600 м
[Cu med, cong Ac trans Cs]
+30.2 +20.2 55 +37 +40 очень
душно
1013.5 1012.1
09 15.12 СЗ 9 10 км 8/1 600 м
[Cu hum Ac trans Cs]
+29.8 +20.1 56 +36 +36 очень
душно
1012.3 1010.9
12 15.12 СЗ 5 10 км 8/1 600 м
[Cu hum Ac trans Cs]
+28.3 +20.1 61 +35 +35 очень
душно
1014.1 1012.7 +30.5
15 15.12 С 5 10 км 8/1 600 м
[Cu hum Ac trans Cs]
+27.5 +20.9 67 +34 +34 очень
душно
1016.2 1014.8
18 15.12 С 11 10 км 8/1 600 м
[Cu hum Ac trans Cs]
+27.7 +18.5 57 +33 +33 очень
душно
1015.4 1014.0
21 15.12 С 12 10 км 6/3 1000 м
[Cu hum Ac trans Cs]
+26.7 +18.2 60 +31 +31 душно 1014.0 1012.6
00 16.12 С 9 10 км 6/3 600 м
[Cu Sc Ac trans Cs]
+25.8 +18.9 66 +31 +31 очень
душно
1015.2 1013.8 +25.8
03 16.12 С 8 10 км 8/3 600 м
[Cu Sc Ac trans Cs]
+27.4 +20.1 64 +34 +34 очень
душно
1017.5 1016.1
06 16.12 СВ 4 10 км 5/1 600 м
[Cu hum Ac trans Cs]
+31.9 +20.9 52 +39 +46 очень
душно
1013.8 1012.5
09 16.12 С 5 10 км 4/1 600 м
[Cu hum Ac trans Ci fib]
+31.0 +21.3 56 +39 +40 очень
душно
1011.9 1010.5
12 16.12 С 5 10 км 4/1 600 м
[Cu hum Ci fib]
+29.9 +24.8 74 +43 +43 опасность
перегрева
1013.4 1012.0 +31.9
15 16.12 СВ 5 10 км 5/1 600 м
[Cu hum Ac trans Cs]
+28.1 +21.2 66 +35 +35 очень
душно
1016.1 1014.7
18 16.12 С 7 10 км 5/1 600 м
[Cu hum Cs]
+27.0 +19.6 64 +33 +33 очень
душно
1014.9 1013.5
21 16.12 С 9 10 км 4/1 600 м
[Cu hum Ci fib]
+25.5 +19.3 69 +31 +31 очень
душно
1013.3 1011.9
00 17.12 СВ 9 10 км 4/1 600 м
[Cu hum Ci fib]
+24.1 +18.4 70 +29 +29 душно 1014.9 1013.5 +24.1
03 17.12 В 8 10 км 4/1 600 м
[Cu hum Ac lent Ci fib]
+27.2 +20.0 65 +33 +35 очень
душно
1017.5 1016.1
06 17.12 В 8 10 км 4/1 600 м
[Cu hum Ci fib]
+30.6 +20.4 55 +38 +40 очень
душно
1014.9 1013.5
09 17.12 В 8 10 км 4/1 600 м
[Cu hum Ci fib]
+31.2 +21.1 55 +39 +39 очень
душно
1012.3 1010.9
12 17.12 В 4 10 км 3/1 600 м
[Sc Ci fib]
+28.8 +20.8 62 +36 +36 очень
душно
1013.8 1012.4 +31.4
15 17.12 В 3 10 км 4/1 1000 м
[Cu hum Cs]
+27.3 +21.1 69 +34 +34 очень
душно
1015.1 1013.7
18 17.12 В 4 10 км 4/1 1000 м
[Cu hum Cs]
+25.9 +21.1 75 +33 +33 очень
душно
1014.2 1012.8
21 17.12 С 6 10 км 4/0
[Ci fib]
+24.6 +20.6 78 +31 +31 очень
душно
1013.4 1011.9
00 18.12 СВ 5 10 км 3/0
[Ci fib]
+23.2 +19.1 78 +30 +30 очень
душно
1014.7 1013.3 +22.8
03 18.12 В 5 10 км 5/1 600 м
[Cu hum Ac lent Cs]
+27.5 +20.0 64 +34 +37 очень
душно
1016.0 1014.6
06 18.12 В 9 10 км 6/1 600 м
[Cu hum Ac lent Cs]
+30.9 +20.7 55 +38 +39 очень
душно
1012.9 1011.5
09 18.12 В 8 10 км 4/1 600 м
[Cu hum Ci fib]
+31.9 +20.2 50 +38 +39 очень
душно
1010.9 1009.5
12 18.12 С 6 10 км 4/1 600 м
[Cu hum Ac trans Ci fib]
+29.1 +20.3 59 +36 +36 очень
душно
1013.3 1011.9 +32.0

 

Местоположение метеостанции Don Muang (Таиланд): широта 13.92 долгота 100.60 высота над уровнем моря 12 м.

В архиве по умолчанию представлена погода в Don Muang за последнюю неделю. Архивные данные за месяц целиком и за предыдущие месяцы, начиная с января 2011 года, Вы можете получить, выбрав интересующий диапазон дат из раскрывающегося списка и нажав кнопку "Ввод!".


*Определитесь, кто Вы:
робот инопланетянин человек

Внимание! Время в таблицах - всемирное. Для получения местного времени необходимо прибавить поправку, которая в Don Muang равна 7 ч.

Смотрите также архив погоды в соседних городах и на ближайших метеорологических станциях:

Погода в Pathumthani (Таиланд) (20 км)
Погода в Bangkok (Таиланд) (22 км)
Погода в Bangkok 2 (Таиланд) (25 км)
Погода в Bang Na Agromet (Таиланд) (28 км)
Погода в Suvarnabhumi IA (Таиланд) (32 км)
Погода в Samutprakan Agromet (Таиланд) (47 км)
Погода в Bangkok Pilot (Таиланд) (60 км)
Погода в Ayutthaya (Таиланд) (68 км)
Погода в Nakhonpathom (Таиланд) (69 км)
Погода в Chon Buri (Таиланд) (74 км)

Пояснения к столбцам:

Ветер - указаны скорость ветра в м/с - средняя за 10 мин, порывы в срок и между сроками (в фигурных скобках) и направление, откуда дует ветер: С - северный, СВ - северо-восточный, В - восточный, ЮВ - юго-восточный, Ю - южный, ЮЗ - юго-западный, З - западный, СЗ - северо-западный.
Видимость - горизонтальная дальность видимости в метрах или километрах. При видимости от 1 до 10 км при отсутствии осадков обычно наблюдается дымка, при ухудшении видимости до 1 км и менее - туман. В сухую погоду видимость может ухудшаться дымом, пылью или мглою.
Явления - указаны атмосферные явления, наблюдавшиеся в срок или в последний час перед сроком; фигурными скобками обозначены явления, наблюдавшиеся между сроками (за 1-3 часа до срока); квадратными скобками обозначены град или гололедные отложения с указанием их диаметра в мм.
Облачность - указаны через наклонную черту общая и нижняя облачность в баллах и высота нижней границы облаков в метрах; квадратными скобками обозначены формы облаков: Ci - перистые, Cs - перисто-слоистые, Cc - перисто-кучевые, Ac - высококучевые, As - высокослоистые, Sc - слоисто-кучевые, Ns - слоисто-дождевые, Cu - кучевые, Cb - кучево-дождевые. Подробнее классификацию облаков см. в Атласе облаков (PDF).
T - Температура воздуха - температура, измеренная на высоте 2 м над землей.
Td - Температура точки росы - температура, при понижении до которой содержащийся в воздухе водяной пар достигнет насыщения.
f - Относительная влажность воздуха - влажноcть воздуха, измеренная на высоте 2 м над землей.
Te - Эффективная температура - температура, которую ощущает одетый по сезону человек в тени. Характеристика душности погоды. При расчете учитывается влияние влажности воздуха и скорости ветра на теплоощущения человека.
Tes - Эффективная температура на солнце - температура, которую ощущает человек, с поправкой на солнечный нагрев. Характеристика знойности погоды. Зависит от высоты солнца над горизонтом, облачности и скорости ветра. Ночью, в пасмурную погоду, а также при ветре 12 м/с и более поправка равна нулю.
P - Атмосферное давление - приведенное к уровню моря атмосферное давление.
Po - Атмосферное давление - измеренное на уровне метеостанции атмосферное давление.
Tmin - Минимальная температура - минимум температуры воздуха на высоте 2 м над землей.
Tmax - Максимальная температура - максимум температуры воздуха на высоте 2 м над землей.
R - Количество осадков - Количество выпавших осадков за период времени, мм. При наведении курсора мыши на число - период времени, за который выпало указанное количество осадков.
R24 - Количество осадков - Количество выпавших осадков за 24 часа, мм.
S - Снежный покров - Высота снежного покрова, см. При наведении курсора мыши на число - состояние снежного покрова и степень покрытия местности в баллах.